This is the latest recevied weather packets stored in our database for station/object IN3XSV-13. If no packets are shown the sender has not sent any weather packets the latest 10 day(s).
| Time | Temp. | Humidity | Pressure | Rain* | Wind** | Luminosity | Snow |
|---|---|---|---|---|---|---|---|
| 1787830668 | 30° C | 56% | 1011.7 hPa | 0 mm | - | - | - |
| 1787830366 | 30° C | 56% | 1011.7 hPa | 0 mm | - | - | - |
| 1787830066 | 30° C | 56% | 1011.7 hPa | 0 mm | - | - | - |
| 1787829766 | 30.56° C | 54% | 1011.8 hPa | 0 mm | - | - | - |
| 1787829466 | 31.11° C | 52% | 1011.9 hPa | 0 mm | - | - | - |
| 1787829166 | 32.22° C | 51% | 1011.9 hPa | 0 mm | - | - | - |
| 1787828867 | 33.89° C | 50% | 1011.8 hPa | 0 mm | - | - | - |
| 1787828566 | 32.78° C | 52% | 1011.9 hPa | 0 mm | - | - | - |
| 1787828267 | 32.78° C | 52% | 1012 hPa | 0 mm | - | - | - |
| 1787827967 | 31.67° C | 53% | 1011.9 hPa | 0 mm | - | - | - |
| 1787827666 | 31.67° C | 52% | 1012 hPa | 0 mm | - | - | - |
| 1787827367 | 31.67° C | 54% | 1012.1 hPa | 0 mm | - | - | - |
| 1787827067 | 31.11° C | 55% | 1012.2 hPa | 0 mm | - | - | - |
| 1787826767 | 30.56° C | 57% | 1012.3 hPa | 0 mm | - | - | - |
| 1787826467 | 29.44° C | 59% | 1012.3 hPa | 0 mm | - | - | - |
| 1787826167 | 28.89° C | 59% | 1012.4 hPa | 0 mm | - | - | - |
| 1787825867 | 29.44° C | 57% | 1012.4 hPa | 0 mm | - | - | - |
| 1787825567 | 30.56° C | 55% | 1012.4 hPa | 0 mm | - | - | - |
| 1787825267 | 30° C | 57% | 1012.4 hPa | 0 mm | - | - | - |
| 1787824967 | 28.89° C | 58% | 1012.6 hPa | 0 mm | - | - | - |
| 1787824667 | 28.89° C | 58% | 1012.4 hPa | 0 mm | - | - | - |
| 1787824367 | 29.44° C | 56% | 1012.3 hPa | 0 mm | - | - | - |
| 1787824067 | 30.56° C | 54% | 1012.3 hPa | 0 mm | - | - | - |
| 1787823767 | 32.22° C | 52% | 1012.4 hPa | 0 mm | - | - | - |
| 1787823467 | 33.89° C | 50% | 1012.3 hPa | 0 mm | - | - | - |
* Rain latest hour (hover to see other rain measurements)
** Current wind speed in m/s (hover to see current wind gust speed)